Location: Aciu?a
(46.2833°N, 22.4500°E)
Time: 13:35:55
(UTC+00:00)

NOSS 2 (A) - Pass Details

Date: 25 October 2021
Orbit: 273 x 1575 km, 63.3° (Epoch: 06 February)

Event Time Altitude Azimuth Distance (km) Brightness Sun altitude
Rises 16:00:57 0° 323° (NW) 2,245 8.8 -6.6°
Reaches altitude 10° 16:03:08 10° 327° (NNW) 1,300 7.5 -7.0°
Maximum altitude 16:05:54 58° 48° (NE) 370 4.2 -7.5°
Drops below altitude 10° 16:08:19 10° 130° (SE) 1,140 6.6 -7.9°
Enters shadow 16:09:33 - 133° (SE) 1,675 7.4 -8.1°
